Location: Arthez
(43.0833°N, 0.2500°W)
Time: 21:48:13
(UTC+00:00)

deb Kosmos-970 - Pass Details

Date: 24 August 2022
Orbit: 900 x 1112 km, 65.8° (Epoch: 28 September)

Event Time Altitude Azimuth Distance (km) Brightness Sun altitude
Rises 22:44:09 0° 327° (NNW) 3,937 ? -33.1°
Reaches altitude 10° 22:46:52 10° 328° (NNW) 2,964 ? -33.3°
Enters shadow 22:53:06 71° 335° (NNW) 1,133 ? -33.7°
